Shepherd Bay, Nunavut

3:14 AM CDT on July 26, 2017 (GMT -0500)
Shepherd Bay

Weather History for CYUS - January, 2014

Change the Weather History Date:

Sunday, January 26, 2014

  Actual Average Record
Temperature  
Mean Temperature -35 °F -  
Max Temperature -27 °F - - ()
Min Temperature -43 °F -41 °F - ()
Degree Days  
Heating Degree Days 100    
Moisture  
Dew Point -    
Average Humidity    
Maximum Humidity    
Minimum Humidity    
Precipitation  
Precipitation 0.00 in 0.01 in - ()
Sea Level Pressure  
Sea Level Pressure 30.23 in    
Wind  
Wind Speed 7 mph ()    
Max Wind Speed 14 mph    
Max Gust Speed -    
T = Trace of Precipitation, MM = Missing Value Source: Averaged Metar Reports

Daily Weather History Graph

Daily Weather History Graph

Search for Another Location

Airport or City:

Trip Planner

Search our weather history database for the weather conditions in past years. The results will help you decide how hot, cold, wet, or windy it might be!

Date:

Astronomy

Jan. 26, 2014 Rise Set
Actual Time 10:09 AM CST 2:44 PM CST
Civil Twilight 8:43 AM CST 4:09 PM CST
Nautical Twilight 7:27 AM CST 5:26 PM CST
Astronomical Twilight 6:19 AM CST 6:34 PM CST
Moon 6:10 AM CST 10:07 AM CST
Length of Visible Light 7h 26m
Length of Day
4h 34m
Waning Crescent, 23% of the Moon is Illuminated
Jan 26
Waning Crescent
Jan 30
New
Feb 6
First Quarter
Feb 14
Full
Feb 22
Last Quarter

Hourly Weather History & Observations

Time (CST) Temp. Windchill Dew Point Humidity Pressure Visibility Wind Dir Wind Speed Gust Speed Precip Events Conditions
12:00 AM -40 °F - - % 30.13 in - SE 8.1 mph - -  
12:00 AM -40.0 °F -62.9 °F - N/A% 30.13 in - SE 8.1 mph - N/A   Clear
1:00 AM -41.8 °F -65.1 °F - N/A% 30.15 in - SSE 8.1 mph - N/A   Clear
2:00 AM -40.0 °F -59.0 °F - N/A% 30.17 in - SSW 5.8 mph - N/A   Clear
3:00 AM -42 °F - - % 30.19 in - ESE 8.1 mph - -  
3:00 AM -41.8 °F -65.1 °F - N/A% 30.19 in - ESE 8.1 mph - N/A   Clear
4:00 AM -43.6 °F -67.3 °F - N/A% 30.21 in - ESE 8.1 mph - N/A   Clear
5:00 AM -43.6 °F -63.3 °F - N/A% 30.23 in - SE 5.8 mph - N/A   Clear
6:00 AM -43 °F - - % 30.23 in - SSE 8.1 mph - -  
6:00 AM -43.6 °F -67.3 °F - N/A% 30.23 in - SSE 8.1 mph - N/A   Clear
7:00 AM -43.6 °F -65.4 °F - N/A% 30.24 in - South 6.9 mph - N/A   Clear
7:27 AM -41.8 °F -65.1 °F - N/A% 30.22 in - SSW 8.1 mph - N/A   Clear
7:29 AM -40.0 °F -62.9 °F - N/A% 30.22 in - SSW 8.1 mph - N/A   Clear
7:34 AM -40.0 °F -61.1 °F - N/A% 30.23 in - SSW 6.9 mph - N/A   Clear
7:39 AM -38.2 °F -60.7 °F - N/A% 30.23 in - SW 8.1 mph - N/A   Clear
8:00 AM -36.4 °F -58.5 °F - N/A% 30.26 in - SSW 8.1 mph - N/A   Clear
8:03 AM -36.4 °F -60.1 °F - N/A% 30.22 in - SSW 9.2 mph - N/A   Clear
8:17 AM -36.4 °F -60.1 °F - N/A% 30.23 in - SW 9.2 mph - N/A   Clear
8:29 AM -36.4 °F -60.1 °F - N/A% 30.22 in - SSW 9.2 mph - N/A   Clear
8:32 AM -36.4 °F -58.5 °F - N/A% 30.22 in - SSW 8.1 mph - N/A   Clear
8:37 AM -36.4 °F -56.8 °F - N/A% 30.22 in - SSW 6.9 mph - N/A   Clear
8:41 AM -36.4 °F -58.5 °F - N/A% 30.23 in - SW 8.1 mph - N/A   Clear
8:53 AM -36.4 °F -54.8 °F - N/A% 30.24 in - SW 5.8 mph - N/A   Clear
9:00 AM -36 °F - - % 30.27 in - SW 5.8 mph - -  
9:00 AM -36.4 °F -54.8 °F - N/A% 30.27 in - WSW 5.8 mph - N/A   Clear
10:00 AM -36.4 °F -56.8 °F - N/A% 30.27 in - WSW 6.9 mph - N/A   Clear
11:00 AM -31.0 °F -48.4 °F - N/A% 30.27 in - WSW 5.8 mph - N/A   Clear
12:00 PM -31 °F - - % 30.27 in - West 11.5 mph - -  
12:00 PM -31.0 °F -56.0 °F - N/A% 30.27 in - West 11.5 mph - N/A   Clear
1:00 PM -29.2 °F -53.7 °F - N/A% 30.27 in - West 11.5 mph - N/A   Partly Cloudy
2:00 PM -27.4 °F -53.5 °F - N/A% 30.26 in - West 13.8 mph - N/A   Partly Cloudy
3:00 PM -28 °F - - % 30.26 in - West 13.8 mph - -  
3:00 PM -27.4 °F -53.5 °F - N/A% 30.26 in - West 13.8 mph - N/A   Partly Cloudy
4:00 PM -29.2 °F -51.2 °F - N/A% 30.26 in - West 9.2 mph - N/A   Clear
5:00 PM -29.2 °F -48.1 °F - N/A% 30.27 in - WSW 6.9 mph - N/A   Clear
6:00 PM -28 °F - - % 30.27 in - WSW 8.1 mph - -  
6:00 PM -29.2 °F -48.1 °F - N/A% 30.27 in - WSW 6.9 mph - N/A   Clear
7:00 PM -29.2 °F -46.2 °F - N/A% 30.26 in - WSW 5.8 mph - N/A   Clear
8:00 PM -29.2 °F -48.1 °F - N/A% 30.24 in - WSW 6.9 mph - N/A   Clear
9:00 PM -29 °F - - % 30.24 in - WSW 5.8 mph - -  
9:00 PM -29.2 °F -46.2 °F - N/A% 30.24 in - WSW 5.8 mph - N/A   Clear
10:00 PM -29.2 °F -48.1 °F - N/A% 30.22 in - SW 6.9 mph - N/A   Clear
11:00 PM -29.2 °F -46.2 °F - N/A% 30.21 in - WSW 5.8 mph - N/A   Clear